一网星座-0286星 (ONEWEB-0286 )

导读

ONEWEB-0286是英国一网(OneWeb)星座计划中的一颗低轨通信卫星,于2021年8月21日发射入轨。作为OneWeb全球卫星互联网组网的组成部分,该卫星运行于近地轨道,单星质量约150千克,采用Ku波段通信技术。它旨在为全球提供高速低时延宽带互联网接入服务,尤其覆盖地面基础设施薄弱区域,支撑全球无缝网络连接,助力一网星座实现全球覆盖的商业运营目标。

基本信息
目录编号:
49076
目录名称:
ONEWEB-0286
国际标识:
2021-075B
轨道中心:
EARTH
卫星名称:
一网星座-0286星
卫星全名:
一网星座-0286星 (ONEWEB-0286 )
卫星状态:
在轨 (已飞行1801 天)
发射日期:
2021-08-21 UTC
国别 :
英国 (GB)
星等 :
--
轨道信息
数据来源 国际轨道数据 AOE轨道数据
星历时间 2026-07-27T22:24:45+0800
8小时前
查看轨道信息
2026-07-22T07:00:00+0800
5天前
查看轨道信息
半长轴 7591.864km 7591.849km
偏心率 0.0001683 0.0001606
轨道倾角 87.898° 87.896°
近地点辐角 95.344° 87.907°
升交点赤经 342.644° 343.764°
平近点角 264.788° 269.247°
近地点 1212.449km 1212.492km
远地点 1215.005km 1214.932km
周期 109.719分钟 109.719分钟
每日圈数 13.124422 13.124461
详细信息
平衡模式:
三轴稳定
覆盖范围:
全球
运营商:
一网卫星公司
运营商所在国:
英国
制造商(研发单位):
一网卫星公司
制造商所在国:
英国
使用方式:
暂无
卫星简介
OneWeb卫星网络由648颗重约125公斤的微型卫星组成,运行在1200公里的轨道上。 每颗卫星都能够提供至少每秒8千兆位的吞吐量,以使用其高吞吐量的Ku频段有效载荷为家庭和移动平台提供互联网接入。该卫星仍在工作。
2D轨道图
3D轨道图
轨道高度分析图
轨道倾角分析图
轨道综合分析图
查看轨道综合分析图